AEE319 LGIR-LGAV

Flight info

Callsign AEE319
Flight time 0h 35m
Altitude 20000
Route EPALO UM749 MIL L617 SOREV
Aircraft A21N/M-SDE3FGHIRWY/LB1

Departure

Time 2026-05-06 16:12
Airport Heraklion International Nikos Kazantzakis Airport (LGIR)

Arrival

Time 2026-05-06 16:47
Airport Athens Eleftherios Venizelos International Airport (LGAV)
Time Latitude Longitude Altitude Speed Heading
2026-05-06 15:53 35.33804 25.17553 113 ft 0 kts 310°
2026-05-06 16:08 35.33819 25.17532 111 ft 6 kts 310°
2026-05-06 16:08 35.33880 25.17503 105 ft 13 kts
2026-05-06 16:08 35.33907 25.17614 103 ft 16 kts 95°
2026-05-06 16:08 35.33894 25.17762 102 ft 19 kts 96°
2026-05-06 16:09 35.33881 25.17935 100 ft 21 kts 95°
2026-05-06 16:09 35.33868 25.18115 101 ft 20 kts 95°
2026-05-06 16:09 35.33856 25.18294 99 ft 21 kts 95°
2026-05-06 16:09 35.33843 25.18481 97 ft 22 kts 95°
2026-05-06 16:10 35.33830 25.18672 91 ft 23 kts 95°
2026-05-06 16:10 35.33816 25.18880 82 ft 22 kts 94°
2026-05-06 16:10 35.33879 25.19040 70 ft 10 kts 52°
2026-05-06 16:10 35.33903 25.19040 69 ft 0 kts 271°
2026-05-06 16:11 35.33905 25.19011 70 ft 11 kts 276°
2026-05-06 16:11 35.33933 25.18628 87 ft 78 kts 275°
2026-05-06 16:11 35.33997 25.17710 94 ft 137 kts 275°
2026-05-06 16:11 35.34094 25.16322 187 ft 177 kts 275°
2026-05-06 16:12 35.34198 25.14865 793 ft 174 kts 279°
2026-05-06 16:12 35.34710 25.13574 1388 ft 174 kts 321°
2026-05-06 16:12 35.35831 25.12960 1823 ft 184 kts 346°
2026-05-06 16:12 35.37106 25.12592 2163 ft 196 kts 345°
2026-05-06 16:13 35.38491 25.12122 2452 ft 215 kts 344°
2026-05-06 16:13 35.39992 25.11614 2759 ft 233 kts 344°
2026-05-06 16:13 35.41623 25.11064 3113 ft 250 kts 344°
2026-05-06 16:13 35.43327 25.10491 3619 ft 260 kts 345°
2026-05-06 16:14 35.45098 25.09897 4326 ft 262 kts 345°
2026-05-06 16:14 35.46840 25.09313 5027 ft 264 kts 345°
2026-05-06 16:14 35.48620 25.08717 5720 ft 266 kts 345°
2026-05-06 16:14 35.50418 25.08115 6433 ft 268 kts 345°
2026-05-06 16:15 35.52211 25.07517 7130 ft 270 kts 345°
2026-05-06 16:15 35.54042 25.06907 7819 ft 273 kts 345°
2026-05-06 16:15 35.55864 25.06298 8505 ft 275 kts 345°
2026-05-06 16:15 35.57726 25.05673 9188 ft 277 kts 345°
2026-05-06 16:16 35.59594 25.05046 9849 ft 279 kts 345°
2026-05-06 16:16 35.61476 25.04415 10470 ft 283 kts 345°
2026-05-06 16:16 35.63403 25.03754 10777 ft 297 kts 343°
2026-05-06 16:16 35.65437 25.02942 11057 ft 313 kts 341°
2026-05-06 16:17 35.67545 25.02060 11321 ft 327 kts 341°
2026-05-06 16:17 35.69759 25.01134 11588 ft 341 kts 341°
2026-05-06 16:17 35.72036 25.00186 12051 ft 347 kts 341°
2026-05-06 16:17 35.74331 24.99235 12644 ft 349 kts 341°
2026-05-06 16:18 35.76658 24.98273 13220 ft 351 kts 341°
2026-05-06 16:18 35.78955 24.97324 13771 ft 353 kts 341°
2026-05-06 16:18 35.81308 24.96351 14321 ft 355 kts 341°
2026-05-06 16:18 35.83655 24.95381 14879 ft 357 kts 340°
2026-05-06 16:19 35.85993 24.94415 15395 ft 359 kts 340°
2026-05-06 16:19 35.88395 24.93423 15905 ft 361 kts 340°
2026-05-06 16:19 35.90778 24.92437 16410 ft 363 kts 340°
2026-05-06 16:19 35.93181 24.91442 16881 ft 365 kts 340°
2026-05-06 16:20 35.95579 24.90449 17346 ft 367 kts 340°
2026-05-06 16:20 35.98012 24.89440 17812 ft 369 kts 340°
2026-05-06 16:20 36.00470 24.88421 18274 ft 370 kts 340°
2026-05-06 16:20 36.02896 24.87414 18712 ft 372 kts 340°
2026-05-06 16:21 36.05364 24.86389 19134 ft 374 kts 340°
2026-05-06 16:21 36.07837 24.85361 19521 ft 376 kts 340°
2026-05-06 16:21 36.10336 24.84322 19903 ft 379 kts 340°
2026-05-06 16:21 36.12848 24.83281 20064 ft 379 kts 340°
2026-05-06 16:22 36.15343 24.82248 20066 ft 378 kts 340°
2026-05-06 16:22 36.17847 24.81209 20072 ft 378 kts 340°
2026-05-06 16:22 36.20329 24.80177 20076 ft 378 kts 340°
2026-05-06 16:22 36.22807 24.79146 20079 ft 378 kts 340°
2026-05-06 16:23 36.25301 24.78106 20081 ft 378 kts 340°
2026-05-06 16:23 36.27788 24.77069 20083 ft 379 kts 340°
2026-05-06 16:23 36.30309 24.76017 20081 ft 379 kts 340°
2026-05-06 16:23 36.32819 24.74967 20080 ft 379 kts 340°
2026-05-06 16:24 36.35300 24.73928 20080 ft 379 kts 340°
2026-05-06 16:24 36.37790 24.72886 20079 ft 379 kts 340°
2026-05-06 16:24 36.40295 24.71836 20076 ft 379 kts 340°
2026-05-06 16:24 36.42806 24.70783 20076 ft 379 kts 340°
2026-05-06 16:25 36.45312 24.69731 20075 ft 379 kts 340°
2026-05-06 16:25 36.47788 24.68692 20078 ft 378 kts 340°
2026-05-06 16:25 36.50307 24.67633 20075 ft 379 kts 340°
2026-05-06 16:25 36.52804 24.66583 20074 ft 378 kts 340°
2026-05-06 16:26 36.55291 24.65536 20074 ft 379 kts 340°
2026-05-06 16:26 36.57810 24.64475 20073 ft 379 kts 340°
2026-05-06 16:26 36.60288 24.63431 20072 ft 379 kts 340°
2026-05-06 16:26 36.62801 24.62371 20066 ft 379 kts 340°
2026-05-06 16:27 36.65314 24.61311 20066 ft 379 kts 340°
2026-05-06 16:27 36.67807 24.60259 20067 ft 379 kts 340°
2026-05-06 16:27 36.70306 24.59202 20065 ft 379 kts 340°
2026-05-06 16:27 36.72805 24.58145 20064 ft 379 kts 340°
2026-05-06 16:28 36.75286 24.57094 20063 ft 379 kts 340°
2026-05-06 16:28 36.77788 24.56035 20062 ft 379 kts 340°
2026-05-06 16:28 36.80293 24.54974 20062 ft 379 kts 340°
2026-05-06 16:28 36.82790 24.53915 20060 ft 379 kts 340°
2026-05-06 16:29 36.85286 24.52855 20059 ft 379 kts 340°
2026-05-06 16:29 36.87802 24.51787 20057 ft 380 kts 340°
2026-05-06 16:29 36.90315 24.50718 20055 ft 380 kts 340°
2026-05-06 16:29 36.92793 24.49664 20055 ft 379 kts 340°
2026-05-06 16:30 36.95296 24.48599 20054 ft 380 kts 340°
2026-05-06 16:30 36.96958 24.47891 20055 ft 380 kts 340°
2026-05-06 16:30 37.00338 24.46449 20053 ft 380 kts 340°
2026-05-06 16:30 37.02836 24.45383 20053 ft 380 kts 340°
2026-05-06 16:31 37.05352 24.44309 20052 ft 380 kts 340°
2026-05-06 16:31 37.07872 24.43243 20046 ft 379 kts 341°
2026-05-06 16:31 37.10376 24.42328 19808 ft 374 kts 344°
2026-05-06 16:31 37.12906 24.41540 19201 ft 374 kts 345°
2026-05-06 16:32 37.15414 24.40805 18593 ft 373 kts 346°
2026-05-06 16:32 37.17956 24.40170 18044 ft 371 kts 348°
2026-05-06 16:32 37.20487 24.39579 17518 ft 369 kts 348°
2026-05-06 16:32 37.23004 24.38990 16985 ft 366 kts 348°
2026-05-06 16:33 37.25514 24.38394 16451 ft 364 kts 348°
2026-05-06 16:33 37.27973 24.37805 15934 ft 362 kts 348°
2026-05-06 16:33 37.30464 24.37204 15412 ft 360 kts 348°
2026-05-06 16:34 37.35371 24.36013 14380 ft 357 kts 348°
2026-05-06 16:34 37.37798 24.35421 13864 ft 355 kts 348°
2026-05-06 16:34 37.40218 24.34830 13355 ft 353 kts 348°
2026-05-06 16:34 37.42639 24.34227 12914 ft 350 kts 348°
2026-05-06 16:35 37.45018 24.33634 12382 ft 348 kts 348°
2026-05-06 16:35 37.47375 24.33049 11881 ft 346 kts 348°
2026-05-06 16:35 37.49752 24.32462 11381 ft 344 kts 348°
2026-05-06 16:35 37.52085 24.31887 10875 ft 342 kts 348°
2026-05-06 16:36 37.54420 24.31313 10377 ft 340 kts 348°
2026-05-06 16:36 37.56722 24.30747 9879 ft 338 kts 348°
2026-05-06 16:36 37.59048 24.30176 9400 ft 335 kts 348°
2026-05-06 16:36 37.61308 24.29619 9200 ft 324 kts 348°
2026-05-06 16:37 37.63487 24.29083 9059 ft 311 kts 348°
2026-05-06 16:37 37.65553 24.28575 8936 ft 299 kts 349°
2026-05-06 16:37 37.67583 24.28075 8792 ft 287 kts 349°
2026-05-06 16:37 37.69507 24.27602 8664 ft 276 kts 349°
2026-05-06 16:38 37.71394 24.27138 8536 ft 275 kts 348°
2026-05-06 16:38 37.73252 24.26680 8424 ft 275 kts 348°
2026-05-06 16:38 37.75127 24.26218 8296 ft 274 kts 348°
2026-05-06 16:38 37.77008 24.25754 8142 ft 274 kts 348°
2026-05-06 16:39 37.78889 24.25289 7982 ft 274 kts 348°
2026-05-06 16:39 37.80750 24.24829 7811 ft 274 kts 348°
2026-05-06 16:39 37.82614 24.24369 7595 ft 273 kts 348°
2026-05-06 16:39 37.84499 24.23903 7313 ft 272 kts 348°
2026-05-06 16:40 37.86356 24.23444 7013 ft 271 kts 348°
2026-05-06 16:40 37.88197 24.22988 6715 ft 269 kts 348°
2026-05-06 16:40 37.90025 24.22535 6409 ft 268 kts 348°
2026-05-06 16:40 37.91842 24.22085 6096 ft 266 kts 348°
2026-05-06 16:41 37.93657 24.21635 5784 ft 264 kts 348°
2026-05-06 16:41 37.95452 24.21189 5483 ft 262 kts 348°
2026-05-06 16:41 37.97175 24.20413 5001 ft 265 kts 326°
2026-05-06 16:41 37.98607 24.18935 4610 ft 265 kts 316°
2026-05-06 16:42 37.99929 24.17328 4363 ft 265 kts 315°
2026-05-06 16:42 38.01237 24.15698 4116 ft 266 kts 315°
2026-05-06 16:42 38.02549 24.14061 3873 ft 266 kts 315°
2026-05-06 16:42 38.03873 24.12415 3618 ft 265 kts 315°
2026-05-06 16:43 38.05184 24.10770 3374 ft 264 kts 311°
2026-05-06 16:43 38.06082 24.08814 3104 ft 258 kts 283°
2026-05-06 16:43 38.06126 24.06628 2998 ft 242 kts 260°
2026-05-06 16:43 38.05552 24.04702 2833 ft 232 kts 231°
2026-05-06 16:44 38.04374 24.03333 2559 ft 229 kts 215°
2026-05-06 16:44 38.03049 24.02194 2258 ft 228 kts 214°
2026-05-06 16:44 38.01763 24.01080 1953 ft 223 kts 216°
2026-05-06 16:44 38.00529 23.99915 1723 ft 214 kts 219°
2026-05-06 16:45 37.99386 23.98764 1516 ft 206 kts 217°
2026-05-06 16:45 37.98283 23.97717 1316 ft 191 kts 217°
2026-05-06 16:45 37.97264 23.96753 1045 ft 180 kts 217°
2026-05-06 16:45 37.96286 23.95822 727 ft 170 kts 217°
2026-05-06 16:46 37.95378 23.94958 488 ft 155 kts 218°
2026-05-06 16:46 37.94553 23.94176 286 ft 143 kts 217°
2026-05-06 16:46 37.93832 23.93488 266 ft 107 kts 217°
2026-05-06 16:46 37.93375 23.93055 260 ft 58 kts 217°
2026-05-06 16:47 37.93143 23.92868 259 ft 32 kts 200°
2026-05-06 16:47 37.92953 23.92831 256 ft 20 kts 150°
2026-05-06 16:47 37.92990 23.92969 256 ft 20 kts 38°
2026-05-06 16:47 37.93110 23.93080 255 ft 21 kts 37°
2026-05-06 16:48 37.93230 23.93194 258 ft 21 kts 37°
2026-05-06 16:48 37.93348 23.93306 260 ft 21 kts 37°
2026-05-06 16:48 37.93466 23.93419 262 ft 21 kts 37°
2026-05-06 16:48 37.93593 23.93539 264 ft 22 kts 37°
2026-05-06 16:49 37.93721 23.93661 267 ft 23 kts 37°
2026-05-06 16:49 37.93851 23.93784 271 ft 23 kts 37°
2026-05-06 16:49 37.93986 23.93912 272 ft 25 kts 37°
2026-05-06 16:49 37.94132 23.94050 273 ft 26 kts 37°
2026-05-06 16:50 37.94275 23.94187 275 ft 25 kts 37°
2026-05-06 16:50 37.94424 23.94328 278 ft 27 kts 37°
2026-05-06 16:50 37.94573 23.94471 284 ft 26 kts 37°
2026-05-06 16:50 37.94680 23.94603 286 ft 19 kts 86°
2026-05-06 16:51 37.94610 23.94747 290 ft 19 kts 127°
2026-05-06 16:51 37.94527 23.94887 292 ft 21 kts 127°
2026-05-06 16:51 37.94428 23.95054 294 ft 24 kts 127°
2026-05-06 16:51 37.94322 23.95232 293 ft 25 kts 128°
2026-05-06 16:52 37.94260 23.95321 291 ft 9 kts 165°
2026-05-06 16:52 37.94212 23.95288 292 ft 6 kts 217°
2026-05-06 16:52 37.94196 23.95273 292 ft 0 kts 217°
2026-05-06 16:52 37.94196 23.95272 292 ft 0 kts 217°